Content
SEND FEEDBACK

Daily
Averages
Monthly
Summary
United States of America

ASHFIELD, MASSACHUSETTS


Home > North America > United States > Massachusetts
Elevation: 1250 feet     Latitude: 42 31N     Longitude: 072 47W

WEATHER
 
SELECT A DAY
Number of Records: 197,581;   Date Range: 10/28/95 - 9/19/14
 
SHARE

PRINT THIS DATA

[ ← Previous Day ]
WEATHER ALMANAC - FEBRUARY 13, 2013
[ Next Day → ]
[ °C ]   °F
Weather ElementAverageHighLow
Temperature31 °F37 °F (2:52 pm)25 °F (6:52 pm)
Dewpoint18.3 °F21.2 °F (5:50 am)15.1 °F (2:52 pm)
Humidity60.2 %72 % (7:52 pm)41 % (2:52 pm)
Barometer29.82 in29.88 in (2:52 am)29.73 in (11:52 pm)
Wind Speed5.4 mph16.1 mph (1:52 am)
Wind Gust25.3 mph (2:52 am)
Weather ElementAverage
Visibility10 mi
Wind DirectionSSE (163.9 °)

Weather ElementTotal
Precipitation---
Heating Degree Days34 (Base 65)
Averaged from 28 records on February 13, 2013
WEATHER CONDITIONS BREAKOUT
WIND DIRECTION BREAKOUT
WEATHER BY HOUR - FEBRUARY 13, 2013
[ °C ]   °F
Local TimeTemperatureDewpointHumidityBarometerVisibilityWind DirectionWind SpeedGust SpeedPrecipitationEventsConditions
1:52 AM30.9 °F19.0 °F61 %29.87 in10.0 miWest (260°)16.1 mph24.2 mphOvercast
2:52 AM30.9 °F19.9 °F64 %29.88 in10.0 miWSW (250°)15.0 mph25.3 mphOvercast
3:52 AM30.9 °F19.9 °F64 %29.88 in10.0 miWest (260°)13.8 mphOvercast
4:52 AM30.9 °F19.9 °F64 %29.88 in10.0 miWest (260°)10.4 mphOvercast
5:50 AM30.2 °F21.2 °F69 %29.85 in10.0 miWest (270°)8.1 mphOvercast
5:52 AM30.9 °F21.0 °F67 %29.87 in10.0 miWest (260°)9.2 mphOvercast
6:44 AM30.2 °F19.4 °F64 %29.85 in10.0 miWest (270°)8.1 mphOvercast
6:52 AM30.9 °F19.9 °F64 %29.87 in10.0 miWest (260°)8.1 mphOvercast
7:41 AM30.2 °F19.4 °F64 %29.86 in10.0 miWest (260°)8.1 mphOvercast
7:52 AM30.9 °F19.9 °F64 %29.88 in10.0 miWSW (250°)8.1 mphOvercast
8:52 AM33.1 °F19.9 °F59 %29.87 in10.0 miWest (270°)6.9 mphOvercast
9:47 AM33.8 °F19.4 °F56 %29.84 in10.0 miWest (280°)6.9 mphOvercast
9:52 AM33.1 °F19.0 °F56 %29.86 in10.0 miVariable3.5 mphOvercast
10:40 AM33.8 °F17.6 °F52 %29.83 in10.0 miWNW (300°)3.5 mphOvercast
10:52 AM34.0 °F18.0 °F52 %29.86 in10.0 miWNW (300°)3.5 mphOvercast
11:52 AM34.0 °F16.0 °F48 %29.84 in10.0 miWest (280°)8.1 mphOvercast
12:52 PM34.0 °F17.1 °F50 %29.83 in10.0 miVariable4.6 mphOvercast
1:52 PM34.0 °F16.0 °F48 %29.81 in10.0 miCalmOvercast
2:52 PM37.0 °F15.1 °F41 %29.78 in10.0 miWest (280°)3.5 mphScattered Clouds
3:52 PM37.0 °F15.1 °F41 %29.77 in10.0 miWest (280°)4.6 mphClear
4:52 PM34.0 °F15.1 °F46 %29.75 in10.0 miCalmClear
5:52 PM27.0 °F16.0 °F63 %29.75 in10.0 miCalmClear
6:52 PM25.0 °F16.0 °F69 %29.75 in10.0 miCalmClear
7:52 PM25.0 °F17.1 °F72 %29.75 in10.0 miCalmClear
8:52 PM25.0 °F17.1 °F72 %29.76 in10.0 miCalmScattered Clouds
9:52 PM27.0 °F19.0 °F72 %29.75 in10.0 miCalmOvercast
10:52 PM27.0 °F19.0 °F72 %29.75 in10.0 miCalmOvercast
11:52 PM27.0 °F19.0 °F72 %29.73 in9.0 miCalmOvercast
Hourly data recorded from KAQW, located miles away from Ashfield, Massachusetts







STORIES FROM OUR PARTNERS